Terug naar catalogus

HAIYANG 2B

ActiefWetenschapSSO
NORAD 43655·PAYLOAD·🇨🇳 China

Gelanceerd Oct 24, 2018 vanaf Taiyuan Satellite Launch Center

Loading…

Volgende Passages (komende 24 uur)

TLE

VersSource: CelesTrak SupGP

Epoch: Sep 14, 2026, 00:00 UTC

1 43655C 18081A   26257.00000000 -.00000057  00000+0 -56126-4 0  2577
2 43655  99.3324 264.4278 0001825  71.1515 174.9455 13.79306075    11

Volg HAIYANG 2B in realtime met AllMySat

Download on the App Store